Regional Weather Roundup
Issued by NWS

Home | Current Version | Previous Version | Graphics & Text | Print | Product List | Glossary On
Versions: 1 2 3 4 5 6 7 8 9 10 11 12 13 14 15 16 17 18 19 20 21 22 23 24 25 26 27 28 29 30 31 32 33 34 35 36 37 38 39 40 41 42 43 44 45 46 47 48 49 50
000
ASUS43 KLOT 240810
RWRIL

ILLINOIS REGIONAL WEATHER ROUNDUP
NATIONAL WEATHER SERVICE CHICAGO/ROMEOVILLE IL
300 AM CDT THU APR 24 2014

NOTE: "FAIR" INDICATES FEW OR NO CLOUDS BELOW 12,000 FEET WITH NO
SIGNIFICANT WEATHER AND/OR OBSTRUCTIONS TO VISIBILITY.

* THESE STATIONS ARE NOT UNDER NWS QUALITY CONTROL. THEY ALSO MAY NOT
  REPORT WEATHER SUCH AS PRECIPITATION OR FOG.

ILZ001-002-007-009-015-016-024-240900-
NORTHWEST ILLINOIS

CITY           SKY/WX    TMP DP  RH WIND       PRES   REMARKS
MOLINE         CLOUDY    45  37  73 E16       29.94F
STERLING*      CLOUDY    41  34  75 E17G23    29.99F
SAVANNA*       CLOUDY    42  33  72 E18G24    29.98F
$$

ILZ003-004-008-010-011-017-018-240900-
NORTH CENTRAL ILLINOIS

CITY           SKY/WX    TMP DP  RH WIND       PRES   REMARKS
ROCKFORD       CLOUDY    40  29  64 E13       30.05F
FREEPORT*      DRIZZLE   36  31  83 E14       30.03F WCI  27
ROCHELLE*      CLOUDY    39  32  77 E15       30.02F WCI  30
DE KALB*       CLOUDY    37  32  83 NE10      30.06R WCI  29
PERU*          CLOUDY    42  36  78 E15       30.01S
$$

ILZ005-006-012>014-019>023-240900-
NORTHEAST ILLINOIS

CITY           SKY/WX    TMP DP  RH WIND       PRES   REMARKS
CHICAGO-OHARE  CLOUDY    40  30  67 N7        30.08R
CHICAGO-MIDWAY CLOUDY    42  35  76 N6        30.07S
AURORA         CLOUDY    40  33  76 E10       30.05S
LANSING*       CLOUDY    42  38  87 NE8       30.05F
JOLIET*        CLOUDY    41  36  81 NE7       30.06R
WAUKEGAN       CLOUDY    36  32  85 CALM      30.10R
DUPAGE AIRPORT LGT RAIN  39  33  79 NE8       30.06S WCI  33
KANKAKEE*      CLOUDY    43  39  86 NE7       30.04S
WHEELING       CLOUDY    38  33  82 N5        30.09R WCI  34
MORRIS*        CLOUDY    42  35  74 NE6       30.04R
ROMEOVILLE*    CLOUDY    40  34  77 NE12      30.06R
NORTHERLY ISL    N/A     41  33  73 MISG        N/A
$$

LMZ740>746-240900-
SOUTHERN LAKE MICHIGAN

STATION/POSITION SKY/WX   TEMP    WIND        PRES    VSBY  WAVE
                          AIR SEA DIR/SP/G                  HT/PER
                          (F)     (DEG/KT/KT) (MB)    (MI)  (FT/S)
WAUKEGAN HARBOR            38     290/  3/  4 1020.7R
HARRISON CRIB              39     350/  8/ 10   N/A
BURNHAM HARBOR             41     360/  9/ 10   N/A
CALUMET HARBOR             41      20/  4/  6 1018.8R
MICHIGAN CITY              46      50/  3/  4   N/A
$$

ILZ025>027-034>036-040-047-049-050-058-095>099-240900-
WEST-CENTRAL ILLINOIS

CITY           SKY/WX    TMP DP  RH WIND       PRES   REMARKS
QUINCY         MOCLDY    52  34  50 SE10      29.86S
GALESBURG*     CLOUDY    47  39  74 E9        29.93R
MACOMB*        CLOUDY    49  34  55 SE9       29.93S
JACKSONVILLE*  MOCLDY    50  34  54 SE8       29.91S
PITTSFIELD*    MOCLDY    52  34  49 NE8       29.89S
$$

ILZ028>032-037-038-041>044-048-051>054-059>061-240900-
CENTRAL ILLINOIS

CITY           SKY/WX    TMP DP  RH WIND       PRES   REMARKS
PONTIAC        CLOUDY    46  39  76 NE10      30.00F
BLOOMINGTON    CLOUDY    46  35  65 E8        29.98S
DECATUR        CLOUDY    52  33  48 SE10      29.95S
PEORIA         CLOUDY    51  38  60 E8        29.95F
LACON*         CLOUDY    44  38  80 E14       29.97S
LINCOLN*       MOCLDY    49  34  57 E6        29.94S
SPRINGFIELD    MOCLDY    51  33  50 SE10      29.92F
TAYLORVILLE    MOCLDY    52  34  50 SE13      29.92F
$$

ILZ033-039-045-046-055>057-062-063-240900-
EAST-CENTRAL ILLINOIS

CITY           SKY/WX    TMP DP  RH WIND       PRES   REMARKS
CHAMPAIGN      CLOUDY    50  37  61 E10       29.97F
RANTOUL*       CLOUDY    53  37  55 E7        29.99F
MATTOON        MOCLDY    52  32  46 SE12      29.95F
PARIS*         CLOUDY    51  38  60 CALM      29.99F
$$

ILZ079-100>102-240900-
SOUTHWEST ILLINOIS

CITY           SKY/WX    TMP DP  RH WIND       PRES   REMARKS
ALTON          CLOUDY    53  36  52 SE12      29.91S
BELLEVILLE     CLOUDY    51  37  60 E2        29.91F
CAHOKIA*       CLOUDY    52  35  52 S7        29.91S
SPARTA*        MOCLDY    50  36  57 SE8       29.92F
$$

ILZ064>066-069>071-074>076-080>082-084>086-088>090-092>094-240900-
SOUTH-CENTRAL ILLINOIS

CITY           SKY/WX    TMP DP  RH WIND       PRES   REMARKS
CARBONDALE     MOCLDY    51  36  56 SE8       29.93F
CAIRO*         PTCLDY    55  38  53 E5        29.93F
MARION         PTCLDY    54  36  50 SE7       29.94F
MT. VERNON     CLOUDY    54  30  40 E8        29.95F
CENTRALIA*     CLOUDY    54  33  45 SE9       29.93F
SALEM*         CLOUDY    55  36  48 SE7       29.94F
METROPOLIS*    PTCLDY    52  32  47 E5        29.94S
$$

ILZ067-068-072-073-078-083-087-091-240900-
SOUTHEAST ILLINOIS

CITY           SKY/WX    TMP DP  RH WIND       PRES   REMARKS
FLORA*         MOCLDY    47  38  69 E7        29.97F
FAIRFIELD*     MOCLDY    52  39  62 E5        29.96F
HARRISBURG*    PTCLDY    49  41  73 E6        29.97S
ROBINSON*      MOCLDY    50  38  64 SE6       30.01S
CARMI*         MOCLDY    51  41  68 SE8       29.97S
$$

ABBREVIATIONS USED IN REMARKS
   TC - TEMPERATURE IN CELSIUS
  WCI - WIND CHILL INDEX
   HX - HEAT INDEX
  VSB - VISIBILITY
$$




USA.gov is the U.S. government's official web portal to all federal, state and local government web resources and services.